Caribou, ME

1:46 PM EST on February 25, 2017 (GMT -0500)
Caribou Municipal

Weather History for KCAR - February, 2014

Change the Weather History Date:

Friday, February 7, 2014

  Actual Average Record
Temperature  
Mean Temperature 11 °F 12 °F  
Max Temperature 20 °F 22 °F 46 °F (1951)
Min Temperature 1 °F 2 °F -24 °F (1993)
Degree Days  
Heating Degree Days 54 53  
Month to date heating degree days 371 377  
Since 1 July heating degree days 5568 5671  
Cooling Degree Days 0 0  
Month to date cooling degree days 0 0  
Year to date cooling degree days 0 0  
Moisture  
Dew Point 3 °F    
Average Humidity 68    
Maximum Humidity 86    
Minimum Humidity 49    
Precipitation  
Precipitation T in 0.08 in 0.63 in (1953)
Month to date precipitation 0.41 0.56  
Year to date precipitation 4.40 3.27  
Snow  
Snow T in 0.80 in 8.30 in (1949)
Month to date snowfall 5.5 5.7  
Since 1 July snowfall 77.6 66.0  
Snow Depth 16.00 in    
Sea Level Pressure  
Sea Level Pressure 30.00 in    
Wind  
Wind Speed 9 mph (SW)    
Max Wind Speed 22 mph    
Max Gust Speed 31 mph    
Visibility 10 miles    
Events Snow    
T = Trace of Precipitation, MM = Missing Value Source: NWS Daily Summary

Daily Weather History Graph

Daily Weather History Graph

Search for Another Location

Airport or City:

Trip Planner

Search our weather history database for the weather conditions in past years. The results will help you decide how hot, cold, wet, or windy it might be!

Date:

Astronomy

Feb. 07, 2014 Rise Set
Actual Time 6:48 AM EST 4:44 PM EST
Civil Twilight 6:16 AM EST 5:16 PM EST
Nautical Twilight 5:40 AM EST 5:52 PM EST
Astronomical Twilight 5:05 AM EST 6:27 PM EST
Moon 10:49 AM EST (2/7) 1:04 AM EST (2/7)
Length of Visible Light 10h 59m
Length of Day
9h 55m
First Quarter, 59% of the Moon is Illuminated
Feb 7
First Quarter
Feb 14
Full
Feb 22
Last Quarter
Mar 1
New
Mar 8
First Quarter

Hourly Weather History & Observations

Time (EST) Temp. Windchill Dew Point Humidity Pressure Visibility Wind Dir Wind Speed Gust Speed Precip Events Conditions
12:54 AM 7.0 °F -4.5 °F -0.9 °F 70% 30.06 in 10.0 mi SW 6.9 mph - N/A   Overcast
1:54 AM 8.1 °F -3.2 °F -0.9 °F 67% 30.06 in 10.0 mi SSW 6.9 mph - N/A   Overcast
2:54 AM 8.1 °F -2.0 °F 1.0 °F 73% 30.04 in 5.0 mi SSW 5.8 mph - 0.00 in Snow Light Snow
3:54 AM 8.1 °F -0.5 °F 3.0 °F 80% 30.03 in 10.0 mi SSW 4.6 mph - 0.00 in   Overcast
4:54 AM 6.1 °F -4.3 °F 1.0 °F 80% 30.02 in 10.0 mi SSW 5.8 mph - N/A   Partly Cloudy
5:54 AM 3.9 °F -5.3 °F -0.0 °F 84% 30.02 in 10.0 mi SW 4.6 mph - N/A   Clear
6:54 AM 3.0 °F -10.5 °F -0.9 °F 84% 30.03 in 10.0 mi SW 8.1 mph - N/A   Clear
7:26 AM 3.0 °F -6.4 °F -0.9 °F 84% 29.98 in 10.0 mi WSW 4.6 mph - N/A   Mostly Cloudy
7:54 AM 3.0 °F -9.3 °F -2.0 °F 80% 30.04 in 8.0 mi SW 6.9 mph - 0.00 in   Scattered Clouds
8:54 AM 8.1 °F 1.4 °F 3.0 °F 80% 30.04 in 10.0 mi SSW 3.5 mph - N/A   Clear
9:54 AM 12.9 °F 1.6 °F 3.9 °F 67% 30.02 in 10.0 mi SW 8.1 mph - N/A   Partly Cloudy
10:54 AM 16.0 °F 4.4 °F 6.1 °F 65% 30.01 in 10.0 mi SW 9.2 mph - N/A   Overcast
11:54 AM 17.1 °F 4.3 °F 3.0 °F 54% 29.99 in 10.0 mi WSW 11.5 mph 23.0 mph N/A   Scattered Clouds
12:54 PM 19.0 °F 5.0 °F 3.9 °F 52% 29.97 in 10.0 mi WSW 15.0 mph 24.2 mph N/A   Mostly Cloudy
1:54 PM 18.0 °F 3.1 °F 3.9 °F 54% 29.95 in 10.0 mi WSW 16.1 mph 25.3 mph N/A   Scattered Clouds
2:54 PM 19.0 °F 2.7 °F 5.0 °F 54% 29.96 in 10.0 mi WSW 20.7 mph 27.6 mph N/A   Scattered Clouds
3:54 PM 18.0 °F 4.8 °F 5.0 °F 57% 29.96 in 10.0 mi WSW 12.7 mph 23.0 mph N/A   Scattered Clouds
4:54 PM 16.0 °F 3.6 °F 3.9 °F 59% 29.96 in 10.0 mi WSW 10.4 mph - N/A   Partly Cloudy
5:54 PM 16.0 °F 7.4 °F 3.9 °F 59% 29.97 in 10.0 mi SW 5.8 mph - N/A   Clear
6:54 PM 15.1 °F 3.3 °F 3.9 °F 61% 29.98 in 10.0 mi SW 9.2 mph 17.3 mph N/A   Overcast
7:54 PM 14.0 °F 1.2 °F 3.9 °F 64% 29.99 in 10.0 mi SW 10.4 mph 21.9 mph N/A   Overcast
8:54 PM 15.1 °F 0.5 °F 5.0 °F 64% 30.00 in 10.0 mi WSW 13.8 mph 21.9 mph N/A   Overcast
9:54 PM 16.0 °F 2.9 °F 5.0 °F 62% 30.00 in 10.0 mi WSW 11.5 mph - N/A   Overcast
10:54 PM 15.1 °F 3.3 °F 5.0 °F 64% 30.00 in 10.0 mi WSW 9.2 mph - N/A   Overcast
11:54 PM 15.1 °F 3.3 °F 3.9 °F 61% 30.00 in 10.0 mi West 9.2 mph - N/A   Overcast